| time (UTC) | temp C | wind direction | speed KPH | gust KPH | rain 1hr cm | rain 24hr cm | rain mn cm | humidity % | barometer mb |
| 20260905235503 | 12 | 0 | 0.0 | 0.0 | 0.00 | 0.30 | 0.00 | 85 | 1012.8 |
| 20260905235216 | 12 | 0 | 0.0 | 0.0 | 0.00 | 0.30 | 0.00 | 85 | 1013.0 |
| 20260905234503 | 12 | 0 | 0.0 | 0.0 | 0.00 | 0.30 | 0.00 | 85 | 1012.7 |
| 20260905234004 | 12 | 257 | 1.6 | 6.4 | 0.00 | 0.30 | 0.00 | 86 | 1013.0 |
| 20260905233504 | 12 | 257 | 1.6 | 6.4 | 0.00 | 0.30 | 0.00 | 86 | 1012.9 |
| 20260905233218 | 12 | 0 | 0.0 | 0.0 | 0.00 | 0.30 | 0.00 | 86 | 1012.9 |
| 20260905232716 | 12 | 290 | 0.0 | 1.6 | 0.00 | 0.30 | 0.00 | 86 | 1012.9 |
| 20260905232004 | 12 | 254 | 0.0 | 3.2 | 0.00 | 0.30 | 0.00 | 86 | 1012.8 |
| 20260905231503 | 12 | 249 | 0.0 | 3.2 | 0.00 | 0.30 | 0.00 | 86 | 1012.7 |
| 20260905231005 | 12 | 0 | 0.0 | 0.0 | 0.00 | 0.30 | 0.00 | 85 | 1012.7 |
| 20260905230503 | 12 | 236 | 0.0 | 3.2 | 0.00 | 0.30 | 0.00 | 85 | 1012.9 |
| 20260905230004 | 12 | 236 | 0.0 | 3.2 | 0.00 | 0.30 | 0.00 | 85 | 1012.8 |
| 20260905225504 | 12 | 270 | 0.0 | 1.6 | 0.00 | 0.30 | 0.00 | 85 | 1012.8 |
| 20260905225216 | 12 | 270 | 0.0 | 1.6 | 0.00 | 0.30 | 0.00 | 85 | 1012.7 |
| 20260905224714 | 12 | 315 | 0.0 | 1.6 | 0.00 | 0.30 | 0.00 | 85 | 1012.7 |
| 20260905224004 | 12 | 0 | 0.0 | 0.0 | 0.00 | 0.30 | 0.00 | 85 | 1012.4 |
| 20260905223503 | 12 | 283 | 1.6 | 9.7 | 0.00 | 0.30 | 0.00 | 85 | 1012.4 |
| 20260905223003 | 12 | 281 | 1.6 | 9.7 | 0.00 | 0.30 | 0.00 | 86 | 1012.6 |
| 20260905222504 | 12 | 280 | 1.6 | 6.4 | 0.00 | 0.30 | 0.00 | 86 | 1012.5 |
| 20260905222214 | 12 | 276 | 0.0 | 6.4 | 0.00 | 0.30 | 0.00 | 86 | 1012.4 |
| 20260905221504 | 12 | 0 | 0.0 | 0.0 | 0.00 | 0.30 | 0.00 | 86 | 1012.7 |
| 20260905221004 | 12 | 0 | 0.0 | 0.0 | 0.00 | 0.30 | 0.00 | 86 | 1012.6 |
| 20260905220503 | 12 | 251 | 0.0 | 1.6 | 0.00 | 0.30 | 0.00 | 86 | 1012.5 |
| 20260905220003 | 12 | 260 | 0.0 | 1.6 | 0.00 | 0.30 | 0.00 | 86 | 1012.5 |
| 20260905215504 | 12 | 278 | 3.2 | 16.1 | 0.00 | 0.30 | 0.30 | 87 | 1012.4 |
| 20260905215004 | 12 | 279 | 3.2 | 16.1 | 0.00 | 0.30 | 0.30 | 87 | 1012.4 |
| 20260905214715 | 12 | 273 | 3.2 | 16.1 | 0.00 | 0.30 | 0.30 | 87 | 1012.7 |
| 20260905214004 | 12 | 192 | 0.0 | 4.8 | 0.00 | 0.30 | 0.30 | 87 | 1012.6 |
| 20260905213504 | 12 | 0 | 0.0 | 0.0 | 0.00 | 0.30 | 0.30 | 88 | 1012.3 |
| 20260905213214 | 12 | 0 | 0.0 | 0.0 | 0.00 | 0.30 | 0.30 | 88 | 1012.4 |
| 20260905212504 | 12 | 245 | 0.0 | 1.6 | 0.03 | 0.30 | 0.30 | 88 | 1012.4 |
| 20260905212003 | 13 | 0 | 0.0 | 0.0 | 0.03 | 0.30 | 0.30 | 88 | 1012.5 |
| 20260905211503 | 13 | 0 | 0.0 | 0.0 | 0.03 | 0.30 | 0.30 | 88 | 1012.3 |
| 20260905211003 | 13 | 0 | 0.0 | 0.0 | 0.03 | 0.30 | 0.30 | 88 | 1012.3 |
| 20260905210503 | 13 | 0 | 0.0 | 0.0 | 0.05 | 0.30 | 0.30 | 88 | 1012.2 |
| 20260905210004 | 13 | 0 | 0.0 | 0.0 | 0.05 | 0.30 | 0.30 | 88 | 1012.4 |
| 20260905205715 | 13 | 0 | 0.0 | 0.0 | 0.05 | 0.30 | 0.30 | 88 | 1012.3 |
| 20260905205004 | 13 | 292 | 0.0 | 1.6 | 0.05 | 0.30 | 0.30 | 88 | 1012.3 |
| 20260905204503 | 13 | 292 | 0.0 | 1.6 | 0.05 | 0.30 | 0.30 | 88 | 1012.2 |
| 20260905204003 | 13 | 270 | 0.0 | 1.6 | 0.05 | 0.30 | 0.30 | 88 | 1012.0 |
| 20260905203503 | 13 | 270 | 0.0 | 1.6 | 0.05 | 0.30 | 0.30 | 87 | 1012.2 |
| 20260905203004 | 13 | 270 | 0.0 | 1.6 | 0.03 | 0.28 | 0.28 | 87 | 1012.1 |
| 20260905202503 | 13 | 247 | 0.0 | 1.6 | 0.03 | 0.28 | 0.28 | 87 | 1012.2 |
| 20260905202215 | 13 | 247 | 0.0 | 1.6 | 0.03 | 0.28 | 0.28 | 87 | 1012.1 |
| 20260905201504 | 13 | 0 | 0.0 | 0.0 | 0.03 | 0.28 | 0.28 | 87 | 1012.1 |
| 20260905201004 | 13 | 0 | 0.0 | 0.0 | 0.03 | 0.28 | 0.28 | 87 | 1012.2 |
| 20260905200503 | 12 | 0 | 0.0 | 0.0 | 0.00 | 0.23 | 0.23 | 86 | 1012.2 |
| 20260905200004 | 12 | 0 | 0.0 | 0.0 | 0.00 | 0.23 | 0.23 | 86 | 1012.1 |
| 20260905195503 | 12 | 0 | 0.0 | 0.0 | 0.00 | 0.23 | 0.23 | 85 | 1012.1 |
| 20260905195004 | 12 | 0 | 0.0 | 0.0 | 0.00 | 0.23 | 0.23 | 85 | 1011.9 |
| 20260905194716 | 12 | 0 | 0.0 | 0.0 | 0.00 | 0.23 | 0.23 | 84 | 1011.8 |
| 20260905194214 | 12 | 0 | 0.0 | 0.0 | 0.00 | 0.23 | 0.23 | 84 | 1011.7 |
| 20260905193717 | 12 | 0 | 0.0 | 0.0 | 0.00 | 0.23 | 0.23 | 88 | 1011.9 |
| 20260905193004 | 12 | 0 | 0.0 | 0.0 | 0.00 | 0.30 | 0.23 | 84 | 1012.0 |
| 20260905192713 | 12 | 0 | 0.0 | 0.0 | 0.00 | 0.30 | 0.23 | 84 | 1011.9 |
| 20260905192004 | 12 | 0 | 0.0 | 0.0 | 0.00 | 0.30 | 0.23 | 84 | 1012.0 |
| 20260905191503 | 12 | 0 | 0.0 | 0.0 | 0.00 | 0.30 | 0.23 | 84 | 1012.0 |
| 20260905191003 | 12 | 0 | 0.0 | 0.0 | 0.00 | 0.30 | 0.23 | 84 | 1012.1 |
| 20260905190715 | 12 | 0 | 0.0 | 0.0 | 0.00 | 0.30 | 0.23 | 83 | 1012.0 |
| 20260905190004 | 12 | 0 | 0.0 | 0.0 | 0.00 | 0.30 | 0.23 | 83 | 1012.0 |
| 20260905185504 | 12 | 0 | 0.0 | 0.0 | 0.03 | 0.30 | 0.23 | 83 | 1012.3 |
| 20260905185004 | 12 | 0 | 0.0 | 0.0 | 0.03 | 0.30 | 0.23 | 83 | 1012.2 |
| 20260905184717 | 12 | 0 | 0.0 | 0.0 | 0.03 | 0.30 | 0.23 | 83 | 1012.4 |
| 20260905184004 | 12 | 0 | 0.0 | 0.0 | 0.03 | 0.30 | 0.23 | 83 | 1012.2 |
| 20260905183503 | 12 | 0 | 0.0 | 0.0 | 0.05 | 0.30 | 0.23 | 83 | 1012.1 |
| 20260905183003 | 12 | 0 | 0.0 | 0.0 | 0.05 | 0.30 | 0.23 | 83 | 1012.1 |
| 20260905182504 | 12 | 0 | 0.0 | 0.0 | 0.05 | 0.30 | 0.23 | 83 | 1012.4 |
| 20260905182004 | 12 | 0 | 0.0 | 0.0 | 0.05 | 0.30 | 0.23 | 83 | 1012.2 |
| 20260905181504 | 13 | 0 | 0.0 | 0.0 | 0.05 | 0.30 | 0.23 | 83 | 1012.3 |
| 20260905181004 | 13 | 0 | 0.0 | 0.0 | 0.05 | 0.30 | 0.23 | 83 | 1012.2 |
| 20260905180504 | 13 | 0 | 0.0 | 0.0 | 0.05 | 0.30 | 0.23 | 83 | 1012.3 |
| 20260905180004 | 13 | 0 | 0.0 | 0.0 | 0.05 | 0.30 | 0.23 | 83 | 1012.4 |
| 20260905175503 | 13 | 0 | 0.0 | 0.0 | 0.03 | 0.28 | 0.20 | 82 | 1012.6 |
| 20260905175003 | 13 | 0 | 0.0 | 0.0 | 0.03 | 0.28 | 0.20 | 82 | 1012.5 |
| 20260905174503 | 13 | 0 | 0.0 | 0.0 | 0.03 | 0.28 | 0.20 | 81 | 1012.5 |
| 20260905174004 | 13 | 0 | 0.0 | 0.0 | 0.05 | 0.28 | 0.20 | 81 | 1012.5 |
| 20260905173504 | 13 | 270 | 0.0 | 1.6 | 0.03 | 0.23 | 0.18 | 80 | 1012.4 |
| 20260905173216 | 13 | 270 | 0.0 | 1.6 | 0.03 | 0.23 | 0.18 | 80 | 1012.2 |
| 20260905172504 | 13 | 0 | 0.0 | 0.0 | 0.03 | 0.23 | 0.18 | 79 | 1012.2 |
| 20260905172004 | 13 | 0 | 0.0 | 0.0 | 0.03 | 0.23 | 0.18 | 79 | 1012.1 |
| 20260905171503 | 13 | 0 | 0.0 | 0.0 | 0.03 | 0.23 | 0.18 | 78 | 1012.1 |
| 20260905171004 | 13 | 0 | 0.0 | 0.0 | 0.03 | 0.23 | 0.18 | 77 | 1012.0 |
| 20260905170716 | 13 | 0 | 0.0 | 0.0 | 0.03 | 0.23 | 0.18 | 77 | 1012.0 |
| 20260905170005 | 13 | 0 | 0.0 | 0.0 | 0.05 | 0.23 | 0.18 | 76 | 1012.2 |
| 20260905165504 | 13 | 0 | 0.0 | 0.0 | 0.05 | 0.23 | 0.18 | 76 | 1012.2 |
| 20260905165215 | 13 | 0 | 0.0 | 0.0 | 0.05 | 0.23 | 0.18 | 75 | 1012.2 |
| 20260905164503 | 13 | 0 | 0.0 | 0.0 | 0.10 | 0.23 | 0.18 | 75 | 1012.3 |
| 20260905164003 | 13 | 0 | 0.0 | 0.0 | 0.05 | 0.20 | 0.15 | 74 | 1012.1 |
| 20260905163503 | 14 | 0 | 0.0 | 0.0 | 0.05 | 0.20 | 0.15 | 74 | 1012.6 |
| 20260905163003 | 14 | 0 | 0.0 | 0.0 | 0.05 | 0.20 | 0.15 | 73 | 1012.1 |
| 20260905162504 | 14 | 0 | 0.0 | 0.0 | 0.05 | 0.20 | 0.15 | 72 | 1011.8 |
| 20260905162004 | 14 | 0 | 0.0 | 0.0 | 0.05 | 0.20 | 0.15 | 71 | 1011.7 |
| 20260905161504 | 14 | 0 | 0.0 | 0.0 | 0.05 | 0.20 | 0.15 | 70 | 1011.7 |
| 20260905161004 | 15 | 0 | 0.0 | 0.0 | 0.05 | 0.20 | 0.15 | 69 | 1012.0 |
| 20260905160503 | 15 | 0 | 0.0 | 0.0 | 0.03 | 0.18 | 0.13 | 65 | 1011.8 |
| 20260905160003 | 15 | 0 | 0.0 | 0.0 | 0.03 | 0.18 | 0.13 | 65 | 1011.8 |
| 20260905155713 | 15 | 0 | 0.0 | 0.0 | 0.03 | 0.18 | 0.13 | 63 | 1011.8 |
| 20260905155003 | 16 | 307 | 0.0 | 1.6 | 0.03 | 0.18 | 0.13 | 60 | 1011.9 |
| 20260905154504 | 17 | 303 | 0.0 | 1.6 | 0.00 | 0.15 | 0.10 | 53 | 1012.1 |
| 20260905154217 | 18 | 303 | 0.0 | 1.6 | 0.00 | 0.15 | 0.10 | 51 | 1011.8 |
| 20260905153504 | 19 | 0 | 0.0 | 0.0 | 0.00 | 0.15 | 0.10 | 50 | 1011.4 |
| 20260905153004 | 19 | 270 | 0.0 | 1.6 | 0.00 | 0.15 | 0.10 | 50 | 1010.9 |
| 20260905152504 | 19 | 270 | 0.0 | 1.6 | 0.00 | 0.15 | 0.10 | 49 | 1010.9 |
| 20260905152003 | 20 | 0 | 0.0 | 0.0 | 0.00 | 0.15 | 0.10 | 47 | 1010.8 |
| 20260905151503 | 20 | 225 | 0.0 | 1.6 | 0.00 | 0.15 | 0.10 | 46 | 1010.8 |
| 20260905151003 | 20 | 225 | 0.0 | 1.6 | 0.00 | 0.15 | 0.10 | 44 | 1010.7 |
| 20260905150504 | 21 | 225 | 0.0 | 1.6 | 0.00 | 0.15 | 0.10 | 44 | 1010.7 |
| 20260905150004 | 21 | 270 | 0.0 | 1.6 | 0.00 | 0.15 | 0.10 | 44 | 1010.7 |
| 20260905145504 | 21 | 270 | 0.0 | 1.6 | 0.00 | 0.15 | 0.10 | 44 | 1010.7 |
| 20260905145004 | 21 | 277 | 0.0 | 1.6 | 0.00 | 0.15 | 0.10 | 44 | 1010.8 |
| 20260905144503 | 21 | 281 | 0.0 | 1.6 | 0.00 | 0.15 | 0.10 | 44 | 1010.8 |
| 20260905144003 | 21 | 292 | 0.0 | 1.6 | 0.00 | 0.15 | 0.10 | 44 | 1010.8 |
| 20260905143715 | 21 | 0 | 0.0 | 0.0 | 0.00 | 0.15 | 0.10 | 43 | 1010.9 |
| 20260905143003 | 21 | 278 | 3.2 | 14.5 | 0.00 | 0.15 | 0.10 | 42 | 1011.1 |
| 20260905142503 | 21 | 278 | 3.2 | 14.5 | 0.00 | 0.15 | 0.10 | 43 | 1011.0 |
| 20260905142004 | 21 | 0 | 0.0 | 0.0 | 0.00 | 0.15 | 0.10 | 43 | 1010.9 |
| 20260905141504 | 21 | 0 | 0.0 | 0.0 | 0.00 | 0.15 | 0.10 | 43 | 1010.9 |
| 20260905141004 | 21 | 0 | 0.0 | 0.0 | 0.00 | 0.15 | 0.10 | 43 | 1010.5 |
| 20260905140713 | 21 | 0 | 0.0 | 0.0 | 0.00 | 0.15 | 0.10 | 44 | 1010.8 |
| 20260905140004 | 22 | 0 | 0.0 | 0.0 | 0.00 | 0.15 | 0.10 | 41 | 1010.8 |
| 20260905135503 | 22 | 0 | 0.0 | 0.0 | 0.00 | 0.15 | 0.10 | 42 | 1010.8 |
| 20260905135003 | 22 | 240 | 0.0 | 1.6 | 0.00 | 0.15 | 0.10 | 41 | 1010.8 |
| 20260905134503 | 22 | 247 | 0.0 | 1.6 | 0.00 | 0.15 | 0.10 | 40 | 1010.5 |
| 20260905134004 | 22 | 270 | 0.0 | 1.6 | 0.00 | 0.15 | 0.10 | 40 | 1010.5 |
| 20260905133504 | 22 | 0 | 0.0 | 0.0 | 0.00 | 0.15 | 0.10 | 41 | 1010.4 |
| 20260905133004 | 22 | 0 | 0.0 | 0.0 | 0.00 | 0.15 | 0.10 | 42 | 1010.4 |
| 20260905132503 | 22 | 0 | 0.0 | 0.0 | 0.00 | 0.15 | 0.10 | 42 | 1010.5 |
| 20260905132004 | 21 | 0 | 0.0 | 0.0 | 0.00 | 0.15 | 0.10 | 44 | 1010.3 |
| 20260905131503 | 21 | 0 | 0.0 | 0.0 | 0.00 | 0.15 | 0.10 | 42 | 1010.4 |
| 20260905131003 | 22 | 0 | 0.0 | 0.0 | 0.00 | 0.15 | 0.10 | 42 | 1010.5 |
| 20260905130503 | 22 | 0 | 0.0 | 0.0 | 0.00 | 0.15 | 0.10 | 44 | 1010.5 |
| 20260905130004 | 21 | 0 | 0.0 | 0.0 | 0.00 | 0.15 | 0.10 | 45 | 1010.4 |
| 20260905125715 | 21 | 0 | 0.0 | 0.0 | 0.00 | 0.15 | 0.10 | 45 | 1010.3 |
| 20260905125004 | 20 | 0 | 0.0 | 0.0 | 0.00 | 0.15 | 0.10 | 47 | 1010.4 |
| 20260905124504 | 20 | 0 | 0.0 | 0.0 | 0.00 | 0.15 | 0.10 | 44 | 1010.5 |
| 20260905124003 | 20 | 292 | 0.0 | 1.6 | 0.00 | 0.15 | 0.10 | 42 | 1010.5 |
| 20260905123717 | 21 | 266 | 0.0 | 1.6 | 0.00 | 0.15 | 0.10 | 42 | 1010.5 |
| 20260905123003 | 21 | 289 | 4.8 | 20.9 | 0.00 | 0.15 | 0.10 | 43 | 1010.3 |
| 20260905122718 | 21 | 288 | 4.8 | 20.9 | 0.00 | 0.15 | 0.10 | 43 | 1010.4 |
| 20260905122004 | 21 | 270 | 0.0 | 3.2 | 0.00 | 0.15 | 0.10 | 46 | 1010.4 |
| 20260905121713 | 21 | 270 | 0.0 | 1.6 | 0.00 | 0.15 | 0.10 | 45 | 1010.5 |
| 20260905121004 | 21 | 0 | 0.0 | 0.0 | 0.00 | 0.15 | 0.10 | 43 | 1010.4 |
| 20260905120503 | 21 | 0 | 0.0 | 0.0 | 0.00 | 0.15 | 0.10 | 42 | 1010.4 |
| 20260905120003 | 21 | 315 | 0.0 | 1.6 | 0.00 | 0.15 | 0.10 | 42 | 1010.5 |
| 20260905115503 | 21 | 295 | 0.0 | 1.6 | 0.00 | 0.15 | 0.10 | 43 | 1010.4 |
| 20260905115003 | 20 | 270 | 0.0 | 1.6 | 0.00 | 0.15 | 0.10 | 46 | 1010.5 |
| 20260905114503 | 20 | 0 | 0.0 | 0.0 | 0.00 | 0.15 | 0.10 | 46 | 1010.4 |
| 20260905114214 | 20 | 0 | 0.0 | 0.0 | 0.00 | 0.15 | 0.10 | 45 | 1010.3 |
| 20260905113504 | 21 | 0 | 0.0 | 0.0 | 0.00 | 0.15 | 0.10 | 43 | 1010.5 |
| 20260905113004 | 22 | 270 | 0.0 | 1.6 | 0.00 | 0.15 | 0.10 | 45 | 1010.3 |
| 20260905112504 | 21 | 270 | 0.0 | 1.6 | 0.00 | 0.15 | 0.10 | 50 | 1010.2 |
| 20260905112003 | 20 | 0 | 0.0 | 0.0 | 0.00 | 0.15 | 0.10 | 50 | 1010.2 |
| 20260905111503 | 20 | 0 | 0.0 | 0.0 | 0.00 | 0.15 | 0.10 | 49 | 1010.2 |
| 20260905111217 | 20 | 0 | 0.0 | 0.0 | 0.00 | 0.15 | 0.10 | 47 | 1010.3 |
| 20260905110503 | 21 | 0 | 0.0 | 0.0 | 0.00 | 0.15 | 0.10 | 46 | 1010.3 |
| 20260905110213 | 21 | 0 | 0.0 | 0.0 | 0.00 | 0.15 | 0.10 | 47 | 1010.3 |
| 20260905105504 | 20 | 270 | 0.0 | 1.6 | 0.00 | 0.15 | 0.10 | 50 | 1010.2 |
| 20260905105004 | 20 | 315 | 0.0 | 1.6 | 0.00 | 0.15 | 0.10 | 46 | 1010.3 |
| 20260905104504 | 20 | 321 | 0.0 | 1.6 | 0.00 | 0.15 | 0.10 | 46 | 1010.1 |
| 20260905104004 | 20 | 270 | 0.0 | 1.6 | 0.00 | 0.15 | 0.10 | 50 | 1010.0 |
| 20260905103503 | 20 | 292 | 0.0 | 1.6 | 0.00 | 0.15 | 0.10 | 51 | 1010.0 |
| 20260905103004 | 20 | 284 | 0.0 | 1.6 | 0.00 | 0.15 | 0.10 | 50 | 1010.0 |
| 20260905102503 | 20 | 270 | 0.0 | 1.6 | 0.00 | 0.15 | 0.10 | 50 | 1009.8 |
| 20260905102003 | 20 | 0 | 0.0 | 0.0 | 0.00 | 0.15 | 0.10 | 50 | 1009.9 |
| 20260905101504 | 20 | 270 | 1.6 | 8.0 | 0.00 | 0.15 | 0.10 | 51 | 1009.9 |
| 20260905101004 | 20 | 270 | 6.4 | 8.0 | 0.00 | 0.15 | 0.10 | 53 | 1010.0 |
| 20260905100504 | 19 | 270 | 6.4 | 20.9 | 0.00 | 0.15 | 0.10 | 53 | 1009.7 |
| 20260905100004 | 19 | 270 | 1.6 | 20.9 | 0.00 | 0.15 | 0.10 | 53 | 1009.9 |
| 20260905095504 | 18 | 0 | 0.0 | 0.0 | 0.00 | 0.15 | 0.10 | 52 | 1009.6 |
| 20260905095004 | 18 | 0 | 0.0 | 0.0 | 0.00 | 0.15 | 0.10 | 53 | 1009.8 |
| 20260905094718 | 18 | 0 | 0.0 | 0.0 | 0.00 | 0.15 | 0.10 | 52 | 1009.7 |
| 20260905094003 | 19 | 0 | 0.0 | 0.0 | 0.00 | 0.15 | 0.10 | 51 | 1009.8 |
| 20260905093503 | 19 | 270 | 0.0 | 1.6 | 0.00 | 0.15 | 0.10 | 50 | 1009.5 |
| 20260905093003 | 20 | 270 | 0.0 | 1.6 | 0.00 | 0.15 | 0.10 | 50 | 1009.6 |
| 20260905092504 | 20 | 225 | 0.0 | 1.6 | 0.00 | 0.15 | 0.10 | 51 | 1009.6 |
| 20260905092004 | 19 | 225 | 0.0 | 1.6 | 0.00 | 0.15 | 0.10 | 52 | 1009.3 |
| 20260905091503 | 18 | 247 | 0.0 | 1.6 | 0.00 | 0.15 | 0.10 | 52 | 1009.4 |
| 20260905091004 | 18 | 247 | 0.0 | 1.6 | 0.00 | 0.15 | 0.10 | 54 | 1009.5 |
| 20260905090503 | 18 | 0 | 0.0 | 0.0 | 0.00 | 0.15 | 0.10 | 55 | 1009.3 |
| 20260905090003 | 18 | 270 | 0.0 | 1.6 | 0.00 | 0.15 | 0.10 | 56 | 1009.3 |
| 20260905085504 | 18 | 270 | 0.0 | 1.6 | 0.00 | 0.15 | 0.10 | 54 | 1009.4 |
| 20260905085004 | 18 | 270 | 0.0 | 1.6 | 0.00 | 0.15 | 0.10 | 56 | 1009.1 |
| 20260905084504 | 19 | 257 | 0.0 | 1.6 | 0.00 | 0.15 | 0.10 | 53 | 1009.3 |
| 20260905084004 | 19 | 250 | 0.0 | 1.6 | 0.00 | 0.15 | 0.10 | 55 | 1009.2 |
| 20260905083503 | 19 | 0 | 0.0 | 0.0 | 0.00 | 0.15 | 0.10 | 56 | 1009.2 |
| 20260905083005 | 19 | 0 | 0.0 | 0.0 | 0.00 | 0.15 | 0.10 | 60 | 1009.2 |
| 20260905082503 | 18 | 0 | 0.0 | 0.0 | 0.00 | 0.15 | 0.10 | 61 | 1009.2 |
| 20260905082005 | 18 | 270 | 0.0 | 1.6 | 0.00 | 0.15 | 0.10 | 62 | 1009.0 |
| 20260905081504 | 17 | 270 | 0.0 | 1.6 | 0.00 | 0.15 | 0.10 | 62 | 1009.1 |
| 20260905081004 | 17 | 0 | 0.0 | 0.0 | 0.00 | 0.15 | 0.10 | 61 | 1008.8 |
| 20260905080504 | 17 | 0 | 0.0 | 0.0 | 0.00 | 0.15 | 0.10 | 61 | 1009.0 |
| 20260905080215 | 17 | 0 | 0.0 | 0.0 | 0.00 | 0.15 | 0.10 | 61 | 1009.0 |
| 20260905075503 | 17 | 0 | 0.0 | 0.0 | 0.00 | 0.15 | 0.10 | 61 | 1008.8 |
| 20260905075003 | 17 | 0 | 0.0 | 0.0 | 0.00 | 0.15 | 0.10 | 62 | 1009.0 |
| 20260905074504 | 17 | 225 | 0.0 | 1.6 | 0.00 | 0.15 | 0.10 | 62 | 1008.9 |
| 20260905074004 | 17 | 225 | 0.0 | 1.6 | 0.00 | 0.15 | 0.10 | 67 | 1008.6 |
| 20260905073504 | 17 | 225 | 0.0 | 1.6 | 0.00 | 0.15 | 0.10 | 67 | 1008.7 |
| 20260905073218 | 16 | 225 | 0.0 | 1.6 | 0.00 | 0.15 | 0.10 | 67 | 1008.6 |
| 20260905072504 | 16 | 258 | 0.0 | 1.6 | 0.00 | 0.15 | 0.10 | 67 | 1008.5 |
| 20260905072003 | 16 | 270 | 0.0 | 1.6 | 0.00 | 0.15 | 0.10 | 68 | 1008.7 |
| 20260905071716 | 16 | 270 | 0.0 | 1.6 | 0.00 | 0.15 | 0.10 | 68 | 1008.7 |
| 20260905071003 | 16 | 270 | 0.0 | 1.6 | 0.00 | 0.15 | 0.10 | 69 | 1008.8 |
| 20260905070504 | 16 | 270 | 0.0 | 1.6 | 0.00 | 0.15 | 0.10 | 69 | 1008.6 |
| 20260905070004 | 16 | 270 | 0.0 | 1.6 | 0.00 | 0.15 | 0.10 | 69 | 1008.6 |
| 20260905065503 | 16 | 270 | 0.0 | 1.6 | 0.00 | 0.15 | 0.10 | 70 | 1008.3 |
| 20260905065216 | 16 | 247 | 0.0 | 1.6 | 0.00 | 0.15 | 0.10 | 70 | 1008.2 |
| 20260905064714 | 16 | 247 | 0.0 | 1.6 | 0.00 | 0.15 | 0.10 | 70 | 1008.1 |
| 20260905064003 | 16 | 225 | 0.0 | 1.6 | 0.00 | 0.15 | 0.10 | 70 | 1008.3 |
| 20260905063504 | 16 | 225 | 0.0 | 1.6 | 0.00 | 0.15 | 0.10 | 70 | 1008.3 |
| 20260905063004 | 16 | 0 | 0.0 | 0.0 | 0.00 | 0.15 | 0.10 | 70 | 1007.9 |
| 20260905062504 | 16 | 270 | 0.0 | 1.6 | 0.00 | 0.15 | 0.10 | 70 | 1007.9 |
| 20260905062004 | 16 | 270 | 0.0 | 1.6 | 0.00 | 0.15 | 0.10 | 70 | 1007.9 |
| 20260905061503 | 16 | 0 | 0.0 | 0.0 | 0.00 | 0.15 | 0.10 | 69 | 1007.9 |
| 20260905061003 | 16 | 0 | 0.0 | 0.0 | 0.00 | 0.15 | 0.10 | 69 | 1007.8 |
| 20260905060503 | 16 | 0 | 0.0 | 0.0 | 0.00 | 0.15 | 0.10 | 69 | 1007.9 |
| 20260905060004 | 16 | 245 | 0.0 | 1.6 | 0.00 | 0.15 | 0.10 | 69 | 1007.8 |
| 20260905055504 | 16 | 245 | 0.0 | 1.6 | 0.00 | 0.15 | 0.10 | 68 | 1007.6 |
| 20260905055004 | 16 | 0 | 0.0 | 0.0 | 0.00 | 0.15 | 0.10 | 70 | 1007.7 |
| 20260905054504 | 16 | 0 | 0.0 | 0.0 | 0.00 | 0.15 | 0.10 | 69 | 1007.7 |
| 20260905054004 | 16 | 270 | 0.0 | 1.6 | 0.00 | 0.15 | 0.10 | 69 | 1007.5 |
| 20260905053503 | 16 | 270 | 0.0 | 1.6 | 0.00 | 0.15 | 0.10 | 69 | 1007.4 |
| 20260905053003 | 16 | 0 | 0.0 | 0.0 | 0.00 | 0.15 | 0.10 | 69 | 1007.2 |
| 20260905052503 | 16 | 0 | 0.0 | 0.0 | 0.00 | 0.15 | 0.10 | 69 | 1007.2 |
| 20260905052215 | 16 | 0 | 0.0 | 0.0 | 0.00 | 0.15 | 0.10 | 68 | 1007.1 |
| 20260905051504 | 16 | 0 | 0.0 | 0.0 | 0.00 | 0.15 | 0.10 | 68 | 1007.1 |
| 20260905051216 | 16 | 0 | 0.0 | 0.0 | 0.00 | 0.15 | 0.10 | 68 | 1007.0 |
| 20260905050503 | 16 | 0 | 0.0 | 0.0 | 0.00 | 0.15 | 0.10 | 68 | 1006.9 |
| 20260905050003 | 16 | 292 | 0.0 | 1.6 | 0.00 | 0.15 | 0.10 | 68 | 1006.9 |
| 20260905045503 | 16 | 292 | 0.0 | 1.6 | 0.00 | 0.15 | 0.10 | 68 | 1007.0 |
| 20260905045005 | 16 | 270 | 0.0 | 1.6 | 0.00 | 0.15 | 0.10 | 67 | 1006.7 |
| 20260905044504 | 16 | 270 | 0.0 | 1.6 | 0.00 | 0.15 | 0.10 | 67 | 1006.7 |
| 20260905044004 | 16 | 281 | 0.0 | 1.6 | 0.00 | 0.15 | 0.10 | 67 | 1006.7 |
| 20260905043504 | 16 | 280 | 0.0 | 1.6 | 0.00 | 0.15 | 0.10 | 68 | 1006.5 |
| 20260905043004 | 16 | 270 | 0.0 | 1.6 | 0.00 | 0.15 | 0.10 | 68 | 1006.3 |
| 20260905042503 | 16 | 225 | 0.0 | 1.6 | 0.00 | 0.15 | 0.10 | 68 | 1006.4 |
| 20260905042003 | 16 | 225 | 0.0 | 1.6 | 0.00 | 0.15 | 0.10 | 68 | 1006.3 |
| 20260905041504 | 16 | 315 | 0.0 | 1.6 | 0.00 | 0.15 | 0.10 | 69 | 1006.4 |
| 20260905041004 | 16 | 315 | 0.0 | 1.6 | 0.00 | 0.15 | 0.10 | 70 | 1006.1 |
| 20260905040504 | 16 | 0 | 0.0 | 0.0 | 0.00 | 0.15 | 0.10 | 70 | 1006.0 |
| 20260905040004 | 16 | 270 | 0.0 | 1.6 | 0.00 | 0.15 | 0.10 | 70 | 1006.0 |
| 20260905035503 | 16 | 270 | 0.0 | 1.6 | 0.00 | 0.15 | 0.10 | 70 | 1006.0 |
| 20260905035003 | 16 | 0 | 0.0 | 0.0 | 0.00 | 0.15 | 0.10 | 70 | 1005.7 |
| 20260905034503 | 16 | 247 | 0.0 | 1.6 | 0.00 | 0.15 | 0.10 | 70 | 1005.5 |
| 20260905034214 | 16 | 247 | 0.0 | 1.6 | 0.00 | 0.15 | 0.10 | 70 | 1005.6 |
| 20260905033504 | 16 | 292 | 0.0 | 1.6 | 0.00 | 0.15 | 0.10 | 70 | 1005.4 |
| 20260905033004 | 16 | 232 | 0.0 | 3.2 | 0.00 | 0.15 | 0.10 | 70 | 1005.2 |
| 20260905032503 | 16 | 233 | 0.0 | 3.2 | 0.00 | 0.15 | 0.10 | 70 | 1005.1 |
| 20260905032004 | 16 | 276 | 0.0 | 1.6 | 0.00 | 0.15 | 0.10 | 71 | 1005.2 |
| 20260905031503 | 16 | 278 | 0.0 | 1.6 | 0.00 | 0.15 | 0.10 | 72 | 1005.3 |
| 20260905031003 | 16 | 270 | 0.0 | 1.6 | 0.00 | 0.15 | 0.10 | 72 | 1005.0 |
| 20260905030504 | 16 | 240 | 0.0 | 3.2 | 0.00 | 0.15 | 0.10 | 73 | 1005.0 |
| 20260905030004 | 16 | 235 | 0.0 | 3.2 | 0.00 | 0.15 | 0.10 | 74 | 1004.8 |
| 20260905025504 | 16 | 266 | 0.0 | 1.6 | 0.00 | 0.15 | 0.10 | 75 | 1005.1 |
| 20260905025004 | 16 | 260 | 0.0 | 1.6 | 0.00 | 0.15 | 0.10 | 77 | 1004.7 |
| 20260905024717 | 16 | 257 | 0.0 | 1.6 | 0.00 | 0.15 | 0.10 | 78 | 1004.9 |
| 20260905024003 | 16 | 225 | 0.0 | 3.2 | 0.00 | 0.15 | 0.10 | 81 | 1004.6 |
| 20260905023713 | 16 | 254 | 0.0 | 4.8 | 0.00 | 0.15 | 0.10 | 81 | 1004.9 |
| 20260905023004 | 16 | 263 | 0.0 | 4.8 | 0.00 | 0.15 | 0.10 | 83 | 1005.0 |
| 20260905022504 | 16 | 225 | 0.0 | 1.6 | 0.00 | 0.15 | 0.10 | 84 | 1004.8 |
| 20260905022004 | 16 | 225 | 0.0 | 1.6 | 0.00 | 0.15 | 0.10 | 85 | 1004.6 |
| 20260905021504 | 16 | 241 | 0.0 | 1.6 | 0.05 | 0.15 | 0.10 | 85 | 1004.4 |
| 20260905021003 | 16 | 250 | 0.0 | 1.6 | 0.05 | 0.15 | 0.10 | 86 | 1004.4 |
| 20260905020503 | 16 | 0 | 0.0 | 0.0 | 0.10 | 0.15 | 0.10 | 87 | 1004.3 |
| 20260905020003 | 16 | 0 | 0.0 | 0.0 | 0.10 | 0.15 | 0.10 | 87 | 1004.3 |
| 20260905015503 | 16 | 247 | 0.0 | 1.6 | 0.10 | 0.15 | 0.10 | 87 | 1004.3 |
| 20260905015004 | 16 | 234 | 0.0 | 1.6 | 0.10 | 0.15 | 0.10 | 88 | 1004.1 |
| 20260905014504 | 17 | 258 | 0.0 | 3.2 | 0.10 | 0.15 | 0.10 | 89 | 1004.0 |
| 20260905014004 | 17 | 270 | 0.0 | 3.2 | 0.10 | 0.15 | 0.10 | 89 | 1004.1 |
| 20260905013504 | 17 | 282 | 1.6 | 12.9 | 0.10 | 0.15 | 0.10 | 89 | 1004.1 |
| 20260905013003 | 17 | 268 | 6.4 | 22.5 | 0.10 | 0.15 | 0.10 | 89 | 1004.1 |
| 20260905012503 | 17 | 270 | 8.0 | 22.5 | 0.10 | 0.15 | 0.10 | 89 | 1004.0 |
| 20260905012003 | 17 | 281 | 3.2 | 17.7 | 0.05 | 0.13 | 0.05 | 88 | 1003.9 |
| 20260905011504 | 17 | 0 | 0.0 | 0.0 | 0.03 | 0.10 | 0.03 | 87 | 1004.1 |
| 20260905011004 | 17 | 0 | 0.0 | 0.0 | 0.03 | 0.10 | 0.03 | 86 | 1003.6 |
| 20260905010504 | 17 | 0 | 0.0 | 0.0 | 0.00 | 0.05 | 0.00 | 85 | 1003.6 |
| 20260905010004 | 17 | 0 | 0.0 | 0.0 | 0.00 | 0.05 | 0.00 | 84 | 1003.5 |
| 20260905005717 | 17 | 0 | 0.0 | 0.0 | 0.00 | 0.05 | 0.00 | 84 | 1003.4 |
| 20260905005004 | 17 | 0 | 0.0 | 0.0 | 0.00 | 0.05 | 0.00 | 83 | 1003.4 |
| 20260905004503 | 17 | 0 | 0.0 | 0.0 | 0.00 | 0.05 | 0.00 | 83 | 1003.5 |
| 20260905004005 | 17 | 0 | 0.0 | 0.0 | 0.00 | 0.05 | 0.00 | 82 | 1003.5 |
| 20260905003714 | 17 | 0 | 0.0 | 0.0 | 0.00 | 0.05 | 0.00 | 82 | 1003.7 |
| 20260905003004 | 17 | 180 | 0.0 | 1.6 | 0.00 | 0.05 | 0.00 | 77 | 1003.6 |
| 20260905002504 | 17 | 180 | 0.0 | 1.6 | 0.00 | 0.05 | 0.00 | 76 | 1003.6 |
| 20260905002004 | 17 | 0 | 0.0 | 0.0 | 0.00 | 0.05 | 0.00 | 75 | 1003.7 |
| 20260905001503 | 17 | 0 | 0.0 | 0.0 | 0.00 | 0.05 | 0.00 | 75 | 1003.6 |
| 20260905001004 | 17 | 0 | 0.0 | 0.0 | 0.00 | 0.05 | 0.00 | 75 | 1003.6 |
| 20260905000504 | 17 | 0 | 0.0 | 0.0 | 0.00 | 0.10 | 0.00 | 75 | 1003.5 |
| 20260905000215 | 17 | 0 | 0.0 | 0.0 | 0.00 | 0.10 | 0.00 | 75 | 1003.4 |